STARLINK-34919, 65802

Orbit data source: Space-Track

STARLINK-34919, 65802 is a payload satellite owned by SpaceX/Seattle (US) in SSO that was launched on Fri, 26 Sep 2025 UTC via an FALCON 9 launch vehicle from the Air Force Western Test Range (AFWTR). Payload-class satellites include a variety of spacecraft equipped with specific instruments for various scientific and technological missions. These include communications satellites like Starlink; space stations such as the ISS; scientific satellites like the Hubble; Earth observation satellites from companies like Planet Labs, Umbra, and HawkEye 360; GPS; miniature CubeSats for education and research; and military/defense satellites.

Loading next visibility...
Identifier
65802, 2025-218M
Orbit
SSO
Country
Flag of USUS
Related business
Manufacturer
SpaceX/Seattle
Mission
Operational Commercial Communications
Bus & Motor
STARLINK V2MO, Unknown motor
Mass
575 kg wet, ~530 kg dry
Launch date (UTC)
2025-09-26 (5 months ago)
Launch vehicle
FALCON 9
Launch site
Air Force Western Test Range (AFWTR)
Object type
Payload
Rocket body
Debris
Shape & HBR
Box + 2 Pan, 17.7 m
Radar Cross Section
36.964 m²

Expand to show TLE details & history
Last TLE update: 16 hours ago

TLE from 16 hours ago
0 STARLINK-34919
1 65802U 25218M   26062.19553059  .00005129  00000-0  35931-3 0  9993
2 65802  97.6010 286.5698 0001605  84.3996 275.7413 15.05660661 23999
Epoch: 2026-03-03T04:41Z
TLE epoch observation values (Epoch: 2026-03-03T04:41:33.842Z)
Latitude
-0.00014°
Longitude
55.20074°
Altitude
552.433 km
Speed
7.586 km/s
True Right ascension
19h 06m 16s
True Declination
0° 00' 00"
Sunlit
Object was in daylight at epoch
Visualization orbit readout
Latitude
Unknown
Longitude
Unknown
Altitude
Unknown
Speed
Unknown
Apparent Right ascension
Unknown
Apparent Declination
Unknown
Sunlit
N/A
Visualization observer readout
Local Sidereal Time
00:33:58
Azimuth
Unknown
Elevation
Unknown
Doppler factor
Unknown
Orbital elements
Apogee altitude
547.583 km
Perigee altitude
545.36 km
Semi-major axis
6,924.609 km
Eccentricity
0.00016
Inclination
97.601°
RAAN
286.5698°
Arg. of periapsis
84.3996°
True anomaly
275.723°
Mean anomaly
275.7413°
Eccentric anomaly
275.73215°
Mean motion
3.76661 °/min
Orbital period
95.58 mins
BSTAR
0.00035931
Loading maneuver chart data...
Computing Atmospheric mass density...
Loading historical data...
Loading historical data...
Loading historical data...
Loading historical data...
Loading historical data...
Loading historical data...
Loading historical data...

Documentation

Showing up to 5 results
|